Time,TemperatureF,DewpointF,PressureIn,WindDirection,WindDirectionDegrees,WindSpeedMPH,WindSpeedGustMPH,Humidity,HourlyPrecipIn,Conditions,Clouds,dailyrainin,SoftwareType,DateUTC
2013-01-16 00:00:00,40.0,39.0,30.07,NE,45,1.0,10.0,96,0.00,,,0.00,Weather View 32 v70,2013-01-16 05:00:00,
2013-01-16 00:01:00,40.0,39.0,30.07,NE,45,1.0,10.0,96,0.00,,,0.00,Weather View 32 v70,2013-01-16 05:01:00,
2013-01-16 00:03:00,40.0,39.0,30.07,NE,45,4.0,10.0,96,0.00,,,0.00,Weather View 32 v70,2013-01-16 05:03:00,
2013-01-16 00:08:00,40.0,39.0,30.07,NE,45,0.0,10.0,96,0.00,,,0.00,Weather View 32 v70,2013-01-16 05:08:00,
2013-01-16 00:13:00,41.0,39.9,30.06,NNW,337,1.0,10.0,96,0.00,,,0.00,Weather View 32 v70,2013-01-16 05:13:00,
2013-01-16 00:18:00,40.0,39.0,30.07,NNW,337,2.0,10.0,96,0.00,,,0.00,Weather View 32 v70,2013-01-16 05:18:00,
2013-01-16 00:23:00,40.0,39.0,30.07,NNW,337,3.0,10.0,96,0.00,,,0.00,Weather View 32 v70,2013-01-16 05:23:00,
2013-01-16 00:28:00,40.0,39.0,30.07,North,360,0.0,10.0,96,0.00,,,0.00,Weather View 32 v70,2013-01-16 05:28:00,
2013-01-16 00:33:00,40.0,39.0,30.07,North,360,0.0,10.0,96,0.00,,,0.00,Weather View 32 v70,2013-01-16 05:33:00,
2013-01-16 00:38:00,40.0,39.0,30.06,North,360,0.0,9.0,96,0.00,,,0.00,Weather View 32 v70,2013-01-16 05:38:00,
2013-01-16 00:43:00,40.0,39.0,30.06,North,360,3.0,9.0,96,0.00,,,0.00,Weather View 32 v70,2013-01-16 05:43:00,
2013-01-16 00:48:00,40.0,39.0,30.07,North,360,5.0,9.0,96,0.00,,,0.00,Weather View 32 v70,2013-01-16 05:48:00,
2013-01-16 00:53:00,40.0,39.0,30.07,NW,315,9.0,9.0,96,0.00,,,0.00,Weather View 32 v70,2013-01-16 05:53:00,
2013-01-16 00:58:00,40.0,39.0,30.07,NNW,337,6.0,9.0,96,0.07,,,0.00,Weather View 32 v70,2013-01-16 05:58:00,
2013-01-16 01:03:00,40.0,39.0,30.07,NNW,337,2.0,9.0,96,0.00,,,0.00,Weather View 32 v70,2013-01-16 06:03:00,
2013-01-16 01:08:00,40.0,39.0,30.07,North,360,1.0,9.0,96,0.00,,,0.00,Weather View 32 v70,2013-01-16 06:08:00,
2013-01-16 01:13:00,40.0,39.0,30.07,NNE,22,2.0,9.0,96,0.00,,,0.00,Weather View 32 v70,2013-01-16 06:13:00,
2013-01-16 01:18:00,40.0,39.0,30.05,NE,45,0.0,10.0,96,0.00,,,0.00,Weather View 32 v70,2013-01-16 06:18:00,
2013-01-16 01:23:00,40.0,39.0,30.05,NNE,22,5.0,10.0,96,0.00,,,0.00,Weather View 32 v70,2013-01-16 06:23:00,
2013-01-16 01:28:00,40.0,39.0,30.06,North,360,7.0,10.0,96,0.00,,,0.00,Weather View 32 v70,2013-01-16 06:28:00,
2013-01-16 01:33:00,40.0,39.0,30.06,NNE,22,6.0,10.0,96,0.00,,,0.00,Weather View 32 v70,2013-01-16 06:33:00,
2013-01-16 01:38:00,40.0,39.0,30.07,North,360,6.0,10.0,96,0.00,,,0.00,Weather View 32 v70,2013-01-16 06:38:00,
2013-01-16 01:43:00,40.0,39.0,30.07,NNW,337,8.0,10.0,96,0.00,,,0.00,Weather View 32 v70,2013-01-16 06:43:00,
2013-01-16 01:48:00,40.0,39.0,30.07,NNW,337,7.0,10.0,96,0.00,,,0.00,Weather View 32 v70,2013-01-16 06:48:00,
2013-01-16 01:53:00,40.0,39.0,30.07,North,360,3.0,10.0,96,0.00,,,0.00,Weather View 32 v70,2013-01-16 06:53:00,
2013-01-16 01:58:00,40.0,39.0,30.07,NNW,337,4.0,10.0,96,0.00,,,0.00,Weather View 32 v70,2013-01-16 06:58:00,
2013-01-16 02:03:00,40.0,39.0,30.07,North,360,0.0,10.0,96,0.00,,,0.00,Weather View 32 v70,2013-01-16 07:03:00,
2013-01-16 02:08:00,40.0,39.0,30.07,NE,45,0.0,10.0,96,0.00,,,0.00,Weather View 32 v70,2013-01-16 07:08:00,
2013-01-16 02:13:00,40.0,39.0,30.07,NNE,22,7.0,11.0,96,0.00,,,0.00,Weather View 32 v70,2013-01-16 07:13:00,
2013-01-16 02:18:00,40.0,39.0,30.06,North,360,4.0,11.0,96,0.00,,,0.00,Weather View 32 v70,2013-01-16 07:18:00,
2013-01-16 02:23:00,40.0,39.0,30.06,North,360,4.0,11.0,96,0.01,,,0.01,Weather View 32 v70,2013-01-16 07:23:00,
2013-01-16 02:29:00,40.0,39.0,30.06,NNE,22,1.0,11.0,96,0.01,,,0.01,Weather View 32 v70,2013-01-16 07:29:00,
2013-01-16 02:34:00,40.0,39.0,30.06,North,360,2.0,11.0,96,0.01,,,0.01,Weather View 32 v70,2013-01-16 07:34:00,
2013-01-16 02:39:00,40.0,39.0,30.07,NNW,337,3.0,11.0,96,0.01,,,0.01,Weather View 32 v70,2013-01-16 07:39:00,
2013-01-16 02:44:00,40.0,39.0,30.07,NW,315,2.0,11.0,96,0.01,,,0.01,Weather View 32 v70,2013-01-16 07:44:00,
2013-01-16 02:49:00,40.0,39.0,30.07,North,360,7.0,11.0,96,0.01,,,0.01,Weather View 32 v70,2013-01-16 07:49:00,
2013-01-16 02:54:00,40.0,39.0,30.07,North,360,4.0,11.0,96,0.01,,,0.01,Weather View 32 v70,2013-01-16 07:54:00,
2013-01-16 02:59:00,39.0,38.0,30.06,North,360,6.0,11.0,96,0.01,,,0.01,Weather View 32 v70,2013-01-16 07:59:00,
2013-01-16 03:04:00,39.0,38.0,30.06,North,360,9.0,11.0,96,0.01,,,0.01,Weather View 32 v70,2013-01-16 08:04:00,
2013-01-16 03:09:00,39.0,38.0,30.06,North,360,0.0,11.0,96,0.01,,,0.01,Weather View 32 v70,2013-01-16 08:09:00,
2013-01-16 03:14:00,39.0,38.0,30.06,NNW,337,3.0,11.0,96,0.01,,,0.01,Weather View 32 v70,2013-01-16 08:14:00,
2013-01-16 03:19:00,39.0,38.0,30.07,NW,315,11.0,11.0,96,0.01,,,0.01,Weather View 32 v70,2013-01-16 08:19:00,
2013-01-16 03:24:00,39.0,38.0,30.07,North,360,6.0,13.0,96,0.00,,,0.01,Weather View 32 v70,2013-01-16 08:24:00,
2013-01-16 03:29:00,39.0,38.0,30.07,NE,45,9.0,13.0,96,0.00,,,0.01,Weather View 32 v70,2013-01-16 08:29:00,
2013-01-16 03:34:00,39.0,38.0,30.07,North,360,6.0,13.0,96,0.00,,,0.01,Weather View 32 v70,2013-01-16 08:34:00,
2013-01-16 03:39:00,39.0,38.0,30.06,NNW,337,5.0,13.0,96,0.00,,,0.01,Weather View 32 v70,2013-01-16 08:39:00,
2013-01-16 03:44:00,39.0,38.0,30.06,NE,45,3.0,13.0,96,0.01,,,0.02,Weather View 32 v70,2013-01-16 08:44:00,
2013-01-16 03:49:00,39.0,38.0,30.06,North,360,12.0,13.0,96,0.01,,,0.02,Weather View 32 v70,2013-01-16 08:49:00,
2013-01-16 03:54:00,39.0,38.0,30.06,NNW,337,1.0,13.0,96,0.02,,,0.03,Weather View 32 v70,2013-01-16 08:54:00,
2013-01-16 03:59:00,39.0,38.0,30.06,NE,45,6.0,13.0,96,0.03,,,0.04,Weather View 32 v70,2013-01-16 08:59:00,
2013-01-16 04:04:00,39.0,38.0,30.06,North,360,1.0,13.0,96,0.03,,,0.04,Weather View 32 v70,2013-01-16 09:04:00,
2013-01-16 04:09:00,39.0,38.0,30.05,North,360,1.0,13.0,96,0.05,,,0.06,Weather View 32 v70,2013-01-16 09:09:00,
2013-01-16 04:14:00,39.0,38.0,30.05,North,360,3.0,13.0,96,0.05,,,0.06,Weather View 32 v70,2013-01-16 09:14:00,
2013-01-16 04:19:00,38.0,37.0,30.05,NNW,337,6.0,13.0,96,0.06,,,0.07,Weather View 32 v70,2013-01-16 09:19:00,
2013-01-16 04:24:00,38.0,37.0,30.05,North,360,9.0,13.0,96,0.06,,,0.07,Weather View 32 v70,2013-01-16 09:24:00,
2013-01-16 04:29:00,38.0,37.0,30.05,NNE,22,5.0,13.0,96,0.06,,,0.07,Weather View 32 v70,2013-01-16 09:29:00,
2013-01-16 04:34:00,38.0,37.0,30.05,NNE,22,2.0,13.0,96,0.07,,,0.08,Weather View 32 v70,2013-01-16 09:34:00,
2013-01-16 04:39:00,38.0,37.0,30.04,NNW,337,7.0,13.0,96,0.07,,,0.08,Weather View 32 v70,2013-01-16 09:39:00,
2013-01-16 04:44:00,38.0,37.0,30.04,NNE,22,4.0,13.0,96,0.06,,,0.08,Weather View 32 v70,2013-01-16 09:44:00,
2013-01-16 04:49:00,38.0,37.0,30.04,NE,45,5.0,13.0,96,0.06,,,0.08,Weather View 32 v70,2013-01-16 09:49:00,
2013-01-16 04:54:00,38.0,37.0,30.04,NE,45,2.0,13.0,96,0.05,,,0.08,Weather View 32 v70,2013-01-16 09:54:00,
2013-01-16 04:59:00,38.0,37.0,30.03,NE,45,8.0,13.0,96,0.04,,,0.08,Weather View 32 v70,2013-01-16 09:59:00,
2013-01-16 05:04:00,38.0,37.0,30.03,East,90,4.0,13.0,96,0.04,,,0.08,Weather View 32 v70,2013-01-16 10:04:00,
2013-01-16 05:09:00,38.0,37.0,30.02,NE,45,0.0,13.0,96,0.02,,,0.08,Weather View 32 v70,2013-01-16 10:09:00,
2013-01-16 05:14:00,38.0,37.0,30.02,ENE,67,7.0,13.0,96,0.02,,,0.08,Weather View 32 v70,2013-01-16 10:14:00,
2013-01-16 05:19:00,38.0,37.0,30.02,NE,45,1.0,13.0,96,0.01,,,0.08,Weather View 32 v70,2013-01-16 10:19:00,
2013-01-16 05:24:00,39.0,38.0,30.02,NE,45,1.0,13.0,96,0.01,,,0.08,Weather View 32 v70,2013-01-16 10:24:00,
2013-01-16 05:29:00,39.0,38.0,30.02,NE,45,6.0,13.0,96,0.01,,,0.08,Weather View 32 v70,2013-01-16 10:29:00,
2013-01-16 05:34:00,39.0,38.0,30.02,NE,45,5.0,13.0,96,0.00,,,0.08,Weather View 32 v70,2013-01-16 10:34:00,
2013-01-16 05:39:00,39.0,38.0,30.03,NE,45,4.0,13.0,96,0.00,,,0.08,Weather View 32 v70,2013-01-16 10:39:00,
2013-01-16 05:44:00,39.0,38.0,30.03,NE,45,3.0,11.0,96,0.00,,,0.08,Weather View 32 v70,2013-01-16 10:44:00,
2013-01-16 05:49:00,39.0,38.0,30.02,NE,45,8.0,11.0,96,0.00,,,0.08,Weather View 32 v70,2013-01-16 10:49:00,
2013-01-16 05:54:00,39.0,38.0,30.02,NE,45,3.0,9.0,96,0.00,,,0.08,Weather View 32 v70,2013-01-16 10:54:00,
2013-01-16 05:59:00,39.0,38.0,30.02,ENE,67,2.0,9.0,96,0.00,,,0.08,Weather View 32 v70,2013-01-16 10:59:00,
2013-01-16 06:04:00,39.0,38.0,30.02,NE,45,3.0,9.0,96,0.00,,,0.08,Weather View 32 v70,2013-01-16 11:04:00,
2013-01-16 06:09:00,39.0,38.0,30.02,NE,45,2.0,9.0,96,0.00,,,0.08,Weather View 32 v70,2013-01-16 11:09:00,
2013-01-16 06:14:00,39.0,38.0,30.02,ENE,67,3.0,9.0,96,0.00,,,0.08,Weather View 32 v70,2013-01-16 11:14:00,
2013-01-16 06:19:00,39.0,38.0,30.02,East,90,4.0,9.0,96,0.00,,,0.08,Weather View 32 v70,2013-01-16 11:19:00,
2013-01-16 06:24:00,39.0,38.0,30.02,ENE,67,5.0,9.0,96,0.00,,,0.08,Weather View 32 v70,2013-01-16 11:24:00,
2013-01-16 06:29:00,39.0,38.0,30.02,ENE,67,1.0,9.0,96,0.00,,,0.08,Weather View 32 v70,2013-01-16 11:29:00,
2013-01-16 06:34:00,39.0,38.0,30.02,ENE,67,1.0,9.0,96,0.00,,,0.08,Weather View 32 v70,2013-01-16 11:34:00,
2013-01-16 06:39:00,39.0,38.0,30.03,ENE,67,3.0,9.0,96,0.00,,,0.08,Weather View 32 v70,2013-01-16 11:39:00,
2013-01-16 06:44:00,39.0,38.0,30.03,ENE,67,0.0,9.0,96,0.00,,,0.08,Weather View 32 v70,2013-01-16 11:44:00,
2013-01-16 06:49:00,39.0,38.0,30.03,ENE,67,0.0,9.0,96,0.00,,,0.08,Weather View 32 v70,2013-01-16 11:49:00,
2013-01-16 06:54:00,39.0,38.0,30.03,ENE,67,0.0,9.0,96,0.00,,,0.08,Weather View 32 v70,2013-01-16 11:54:00,
2013-01-16 06:59:00,39.0,38.0,30.03,ENE,67,0.0,9.0,96,0.01,,,0.09,Weather View 32 v70,2013-01-16 11:59:00,
2013-01-16 07:04:00,39.0,38.0,30.03,ENE,67,1.0,8.0,96,0.01,,,0.09,Weather View 32 v70,2013-01-16 12:04:00,
2013-01-16 07:09:00,39.0,38.0,30.04,ENE,67,0.0,8.0,96,0.01,,,0.09,Weather View 32 v70,2013-01-16 12:09:00,
2013-01-16 07:14:00,39.0,38.0,30.04,ENE,67,2.0,8.0,96,0.01,,,0.09,Weather View 32 v70,2013-01-16 12:14:00,
2013-01-16 07:19:00,39.0,38.0,30.03,ENE,67,0.0,8.0,96,0.01,,,0.09,Weather View 32 v70,2013-01-16 12:19:00,
2013-01-16 07:24:00,39.0,38.0,30.03,ENE,67,1.0,8.0,96,0.01,,,0.09,Weather View 32 v70,2013-01-16 12:24:00,
2013-01-16 07:29:00,39.0,38.0,30.04,ENE,67,0.0,6.0,96,0.01,,,0.09,Weather View 32 v70,2013-01-16 12:29:00,
2013-01-16 07:34:00,39.0,38.0,30.04,ENE,67,0.0,6.0,96,0.01,,,0.09,Weather View 32 v70,2013-01-16 12:34:00,
2013-01-16 07:39:00,39.0,38.0,30.03,ENE,67,1.0,6.0,96,0.01,,,0.09,Weather View 32 v70,2013-01-16 12:39:00,
2013-01-16 07:44:00,39.0,38.0,30.03,ENE,67,0.0,6.0,96,0.01,,,0.09,Weather View 32 v70,2013-01-16 12:44:00,
2013-01-16 07:49:00,39.0,38.0,30.03,ENE,67,0.0,6.0,96,0.01,,,0.09,Weather View 32 v70,2013-01-16 12:49:00,
2013-01-16 07:54:00,39.0,38.0,30.03,ENE,67,0.0,6.0,96,0.01,,,0.09,Weather View 32 v70,2013-01-16 12:54:00,
2013-01-16 07:59:00,39.0,38.0,30.03,ENE,67,0.0,6.0,96,0.00,,,0.09,Weather View 32 v70,2013-01-16 12:59:00,
2013-01-16 08:04:00,39.0,38.0,30.03,ENE,67,0.0,6.0,96,0.00,,,0.09,Weather View 32 v70,2013-01-16 13:04:00,
2013-01-16 08:09:00,39.0,38.0,30.03,ENE,67,0.0,6.0,96,0.00,,,0.09,Weather View 32 v70,2013-01-16 13:09:00,
2013-01-16 08:14:00,39.0,38.0,30.03,ENE,67,0.0,6.0,96,0.00,,,0.09,Weather View 32 v70,2013-01-16 13:14:00,
2013-01-16 08:19:00,39.0,38.0,30.03,ENE,67,0.0,6.0,96,0.00,,,0.09,Weather View 32 v70,2013-01-16 13:19:00,
2013-01-16 08:24:00,39.0,38.0,30.03,ENE,67,0.0,4.0,96,0.12,,,0.09,Weather View 32 v70,2013-01-16 13:24:00,
2013-01-16 08:29:00,40.0,39.0,30.02,ENE,67,1.0,4.0,96,0.12,,,0.09,Weather View 32 v70,2013-01-16 13:29:00,
2013-01-16 08:34:00,40.0,39.0,30.02,ENE,67,0.0,5.0,96,0.00,,,0.09,Weather View 32 v70,2013-01-16 13:34:00,
2013-01-16 08:39:00,40.0,39.0,30.03,ENE,67,0.0,5.0,96,0.00,,,0.09,Weather View 32 v70,2013-01-16 13:39:00,
2013-01-16 08:44:00,40.0,39.0,30.03,ENE,67,0.0,5.0,96,0.00,,,0.09,Weather View 32 v70,2013-01-16 13:44:00,
2013-01-16 08:49:00,40.0,39.0,30.04,ENE,67,3.0,5.0,96,0.00,,,0.09,Weather View 32 v70,2013-01-16 13:49:00,
2013-01-16 08:54:00,40.0,39.0,30.04,ENE,67,1.0,5.0,96,0.00,,,0.09,Weather View 32 v70,2013-01-16 13:54:00,
2013-01-16 08:59:00,40.0,39.0,30.03,ENE,67,1.0,5.0,96,0.00,,,0.09,Weather View 32 v70,2013-01-16 13:59:00,
2013-01-16 09:04:00,40.0,39.0,30.03,ENE,67,0.0,5.0,96,0.00,,,0.09,Weather View 32 v70,2013-01-16 14:04:00,
2013-01-16 09:09:00,40.0,39.0,30.05,ENE,67,2.0,5.0,96,0.00,,,0.09,Weather View 32 v70,2013-01-16 14:09:00,
2013-01-16 09:14:00,40.0,39.0,30.05,ENE,67,0.0,5.0,96,0.01,,,0.10,Weather View 32 v70,2013-01-16 14:14:00,
2013-01-16 09:19:00,40.0,39.0,30.05,North,360,3.0,5.0,96,0.02,,,0.11,Weather View 32 v70,2013-01-16 14:19:00,
2013-01-16 09:24:00,40.0,39.0,30.05,North,360,2.0,5.0,96,0.04,,,0.13,Weather View 32 v70,2013-01-16 14:24:00,
2013-01-16 09:29:00,40.0,39.0,30.05,North,360,0.0,5.0,96,0.05,,,0.14,Weather View 32 v70,2013-01-16 14:29:00,
2013-01-16 09:34:00,40.0,39.0,30.05,North,360,0.0,5.0,96,0.05,,,0.14,Weather View 32 v70,2013-01-16 14:34:00,
2013-01-16 09:39:00,40.0,39.0,30.06,North,360,0.0,5.0,96,0.05,,,0.14,Weather View 32 v70,2013-01-16 14:39:00,
2013-01-16 09:44:00,40.0,39.0,30.06,North,360,3.0,5.0,96,0.06,,,0.15,Weather View 32 v70,2013-01-16 14:44:00,
2013-01-16 09:49:00,41.0,39.9,30.05,North,360,2.0,5.0,96,0.06,,,0.15,Weather View 32 v70,2013-01-16 14:49:00,
2013-01-16 09:55:00,41.0,39.9,30.05,North,360,0.0,5.0,96,0.06,,,0.15,Weather View 32 v70,2013-01-16 14:55:00,
2013-01-16 10:00:00,41.0,39.9,30.05,North,360,3.0,6.0,96,0.06,,,0.15,Weather View 32 v70,2013-01-16 15:00:00,
2013-01-16 10:05:00,41.0,39.9,30.05,North,360,0.0,6.0,96,0.06,,,0.15,Weather View 32 v70,2013-01-16 15:05:00,
2013-01-16 10:10:00,41.0,39.9,30.06,NW,315,6.0,9.0,96,0.06,,,0.15,Weather View 32 v70,2013-01-16 15:10:00,
2013-01-16 10:15:00,41.0,39.9,30.06,NNW,337,1.0,10.0,96,0.05,,,0.15,Weather View 32 v70,2013-01-16 15:15:00,
2013-01-16 10:20:00,41.0,39.9,30.06,NNW,337,3.0,10.0,96,0.04,,,0.15,Weather View 32 v70,2013-01-16 15:20:00,
2013-01-16 10:25:00,41.0,39.9,30.06,NNW,337,7.0,10.0,96,0.02,,,0.15,Weather View 32 v70,2013-01-16 15:25:00,
2013-01-16 10:30:00,41.0,39.9,30.06,NNW,337,5.0,10.0,96,0.01,,,0.15,Weather View 32 v70,2013-01-16 15:30:00,
2013-01-16 10:35:00,41.0,39.9,30.06,NNW,337,8.0,10.0,96,0.01,,,0.15,Weather View 32 v70,2013-01-16 15:35:00,
2013-01-16 10:40:00,41.0,39.9,30.07,North,360,6.0,10.0,96,0.01,,,0.15,Weather View 32 v70,2013-01-16 15:40:00,
2013-01-16 10:45:00,41.0,39.9,30.07,North,360,9.0,10.0,96,0.01,,,0.16,Weather View 32 v70,2013-01-16 15:45:00,
2013-01-16 10:50:00,41.0,39.9,30.06,North,360,8.0,12.0,96,0.01,,,0.16,Weather View 32 v70,2013-01-16 15:50:00,
2013-01-16 10:55:00,41.0,39.9,30.06,NNW,337,5.0,12.0,96,0.02,,,0.17,Weather View 32 v70,2013-01-16 15:55:00,
2013-01-16 11:00:00,41.0,39.9,30.06,North,360,9.0,13.0,96,0.02,,,0.18,Weather View 32 v70,2013-01-16 16:00:00,
2013-01-16 11:05:00,41.0,39.9,30.06,NNW,337,5.0,13.0,96,0.03,,,0.18,Weather View 32 v70,2013-01-16 16:05:00,
2013-01-16 11:10:00,40.0,39.0,30.07,North,360,7.0,13.0,96,0.04,,,0.19,Weather View 32 v70,2013-01-16 16:10:00,
2013-01-16 11:15:00,40.0,39.0,30.07,NNE,22,6.0,13.0,96,0.05,,,0.20,Weather View 32 v70,2013-01-16 16:15:00,
2013-01-16 11:20:00,40.0,39.0,30.05,NNE,22,0.0,13.0,96,0.06,,,0.21,Weather View 32 v70,2013-01-16 16:20:00,
2013-01-16 11:25:00,40.0,39.0,30.05,NNE,22,0.0,13.0,96,0.07,,,0.23,Weather View 32 v70,2013-01-16 16:25:00,
2013-01-16 11:30:00,41.0,39.9,30.04,SSE,157,3.0,13.0,96,0.08,,,0.23,Weather View 32 v70,2013-01-16 16:30:00,
2013-01-16 11:35:00,41.0,39.9,30.04,SSE,157,1.0,13.0,96,0.10,,,0.25,Weather View 32 v70,2013-01-16 16:35:00,
2013-01-16 11:40:00,41.0,39.9,30.03,SSE,157,0.0,13.0,96,0.11,,,0.26,Weather View 32 v70,2013-01-16 16:40:00,
2013-01-16 11:45:00,41.0,39.9,30.03,SE,135,3.0,13.0,96,0.11,,,0.27,Weather View 32 v70,2013-01-16 16:45:00,
2013-01-16 11:50:00,41.0,39.9,30.03,SE,135,0.0,13.0,96,0.13,,,0.29,Weather View 32 v70,2013-01-16 16:50:00,
2013-01-16 11:55:00,41.0,39.9,30.03,SE,135,0.0,13.0,96,0.13,,,0.30,Weather View 32 v70,2013-01-16 16:55:00,
2013-01-16 12:00:00,41.0,39.9,30.02,SE,135,0.0,13.0,96,0.14,,,0.31,Weather View 32 v70,2013-01-16 17:00:00,
2013-01-16 12:05:00,41.0,39.9,30.02,SE,135,0.0,13.0,96,0.14,,,0.32,Weather View 32 v70,2013-01-16 17:05:00,
2013-01-16 12:10:00,42.0,40.9,30.01,SE,135,1.0,13.0,96,0.13,,,0.32,Weather View 32 v70,2013-01-16 17:10:00,
2013-01-16 12:15:00,42.0,40.9,30.01,SE,135,1.0,9.0,96,0.13,,,0.33,Weather View 32 v70,2013-01-16 17:15:00,
2013-01-16 12:20:00,42.0,40.9,30.00,SSE,157,6.0,6.0,96,0.12,,,0.33,Weather View 32 v70,2013-01-16 17:20:00,
2013-01-16 12:25:00,42.0,40.9,30.00,South,180,6.0,6.0,96,0.11,,,0.33,Weather View 32 v70,2013-01-16 17:25:00,
2013-01-16 12:30:00,42.0,40.9,30.01,South,180,0.0,6.0,96,0.10,,,0.33,Weather View 32 v70,2013-01-16 17:30:00,
2013-01-16 12:35:00,43.0,41.9,30.01,South,180,0.0,6.0,96,0.08,,,0.33,Weather View 32 v70,2013-01-16 17:35:00,
2013-01-16 12:40:00,43.0,41.9,29.99,SE,135,3.0,6.0,96,0.07,,,0.33,Weather View 32 v70,2013-01-16 17:40:00,
2013-01-16 12:45:00,43.0,41.9,29.99,SE,135,2.0,6.0,96,0.06,,,0.33,Weather View 32 v70,2013-01-16 17:45:00,
2013-01-16 12:50:00,43.0,41.9,29.99,SE,135,3.0,6.0,96,0.04,,,0.33,Weather View 32 v70,2013-01-16 17:50:00,
2013-01-16 12:55:00,44.0,43.2,29.99,SE,135,1.0,6.0,97,0.03,,,0.33,Weather View 32 v70,2013-01-16 17:55:00,
2013-01-16 13:00:00,44.0,43.2,29.98,SE,135,3.0,6.0,97,0.02,,,0.33,Weather View 32 v70,2013-01-16 18:00:00,
2013-01-16 13:05:00,44.0,43.2,29.98,SE,135,1.0,6.0,97,0.01,,,0.33,Weather View 32 v70,2013-01-16 18:05:00,
2013-01-16 13:10:00,44.0,43.2,29.97,NE,45,0.0,6.0,97,0.01,,,0.33,Weather View 32 v70,2013-01-16 18:10:00,
2013-01-16 13:15:00,44.0,43.2,29.97,ESE,112,2.0,6.0,97,0.00,,,0.33,Weather View 32 v70,2013-01-16 18:15:00,
2013-01-16 13:20:00,44.0,43.2,29.97,ESE,112,0.0,6.0,97,0.00,,,0.33,Weather View 32 v70,2013-01-16 18:20:00,
2013-01-16 13:25:00,45.0,44.2,29.97,ESE,112,0.0,6.0,97,0.00,,,0.33,Weather View 32 v70,2013-01-16 18:25:00,
2013-01-16 13:30:00,45.0,44.2,29.97,ESE,112,0.0,6.0,97,0.00,,,0.33,Weather View 32 v70,2013-01-16 18:30:00,
2013-01-16 13:35:00,45.0,44.2,29.97,ESE,112,0.0,6.0,97,0.00,,,0.33,Weather View 32 v70,2013-01-16 18:35:00,
2013-01-16 13:40:00,45.0,44.2,29.97,ESE,112,0.0,6.0,97,0.00,,,0.33,Weather View 32 v70,2013-01-16 18:40:00,
2013-01-16 13:45:00,45.0,44.2,29.97,ESE,112,0.0,6.0,97,0.00,,,0.33,Weather View 32 v70,2013-01-16 18:45:00,
2013-01-16 13:50:00,46.0,45.2,29.96,ESE,112,0.0,6.0,97,0.00,,,0.33,Weather View 32 v70,2013-01-16 18:50:00,
2013-01-16 13:55:00,46.0,45.2,29.96,ESE,112,2.0,6.0,97,0.00,,,0.33,Weather View 32 v70,2013-01-16 18:55:00,
2013-01-16 14:00:00,46.0,45.2,29.95,ESE,112,2.0,6.0,97,0.00,,,0.33,Weather View 32 v70,2013-01-16 19:00:00,
2013-01-16 14:05:00,46.0,45.2,29.95,SE,135,2.0,6.0,97,0.00,,,0.33,Weather View 32 v70,2013-01-16 19:05:00,
2013-01-16 14:10:00,46.0,45.2,29.94,SE,135,3.0,7.0,97,0.00,,,0.33,Weather View 32 v70,2013-01-16 19:10:00,
2013-01-16 14:15:00,46.0,45.2,29.94,SSE,157,2.0,7.0,97,0.00,,,0.33,Weather View 32 v70,2013-01-16 19:15:00,
2013-01-16 14:20:00,46.0,45.2,29.94,SE,135,3.0,7.0,97,0.00,,,0.33,Weather View 32 v70,2013-01-16 19:20:00,
2013-01-16 14:25:00,46.0,45.2,29.94,South,180,0.0,7.0,97,0.00,,,0.33,Weather View 32 v70,2013-01-16 19:25:00,
2013-01-16 14:30:00,46.0,45.2,29.95,South,180,2.0,7.0,97,0.00,,,0.33,Weather View 32 v70,2013-01-16 19:30:00,
2013-01-16 14:35:00,46.0,45.2,29.95,South,180,3.0,7.0,97,0.00,,,0.33,Weather View 32 v70,2013-01-16 19:35:00,
2013-01-16 14:40:00,46.0,45.2,29.96,South,180,3.0,7.0,97,0.00,,,0.33,Weather View 32 v70,2013-01-16 19:40:00,
2013-01-16 14:45:00,47.0,46.2,29.96,SSW,202,4.0,7.0,97,0.00,,,0.33,Weather View 32 v70,2013-01-16 19:45:00,
2013-01-16 14:50:00,47.0,46.2,29.96,SSW,202,1.0,7.0,97,0.00,,,0.33,Weather View 32 v70,2013-01-16 19:50:00,
2013-01-16 14:55:00,47.0,46.2,29.95,SSW,202,0.0,7.0,97,0.00,,,0.33,Weather View 32 v70,2013-01-16 19:55:00,
2013-01-16 15:00:00,47.0,46.2,29.95,SSW,202,3.0,7.0,97,0.00,,,0.33,Weather View 32 v70,2013-01-16 20:00:00,
2013-01-16 15:05:00,48.0,47.2,29.93,SE,135,3.0,7.0,97,0.00,,,0.33,Weather View 32 v70,2013-01-16 20:05:00,
2013-01-16 15:10:00,48.0,47.2,29.93,South,180,0.0,7.0,97,0.00,,,0.33,Weather View 32 v70,2013-01-16 20:10:00,
2013-01-16 15:15:00,48.0,47.2,29.95,SW,225,3.0,7.0,97,0.00,,,0.33,Weather View 32 v70,2013-01-16 20:15:00,
2013-01-16 15:21:00,48.0,47.2,29.95,West,270,2.0,7.0,97,0.00,,,0.33,Weather View 32 v70,2013-01-16 20:21:00,
2013-01-16 15:26:00,48.0,47.2,29.95,West,270,0.0,7.0,97,0.00,,,0.33,Weather View 32 v70,2013-01-16 20:26:00,
2013-01-16 15:31:00,48.0,47.2,29.95,West,270,5.0,7.0,97,0.00,,,0.33,Weather View 32 v70,2013-01-16 20:31:00,
2013-01-16 15:36:00,49.0,48.2,29.95,WNW,292,0.0,7.0,97,0.00,,,0.33,Weather View 32 v70,2013-01-16 20:36:00,
2013-01-16 15:41:00,49.0,48.2,29.95,WNW,292,0.0,7.0,97,0.00,,,0.33,Weather View 32 v70,2013-01-16 20:41:00,
2013-01-16 15:46:00,49.0,48.2,29.94,WNW,292,0.0,7.0,97,0.00,,,0.33,Weather View 32 v70,2013-01-16 20:46:00,
2013-01-16 15:51:00,49.0,48.2,29.94,WNW,292,4.0,7.0,97,0.00,,,0.33,Weather View 32 v70,2013-01-16 20:51:00,
2013-01-16 15:56:00,49.0,48.2,29.95,WNW,292,3.0,7.0,97,0.00,,,0.33,Weather View 32 v70,2013-01-16 20:56:00,
2013-01-16 16:01:00,49.0,48.2,29.95,West,270,2.0,8.0,97,0.00,,,0.33,Weather View 32 v70,2013-01-16 21:01:00,
2013-01-16 16:06:00,49.0,48.2,29.96,West,270,3.0,8.0,97,0.00,,,0.33,Weather View 32 v70,2013-01-16 21:06:00,
2013-01-16 16:11:00,49.0,48.2,29.96,West,270,3.0,8.0,97,0.00,,,0.33,Weather View 32 v70,2013-01-16 21:11:00,
2013-01-16 16:16:00,49.0,48.2,29.96,WSW,247,3.0,8.0,97,0.00,,,0.33,Weather View 32 v70,2013-01-16 21:16:00,
2013-01-16 16:21:00,49.0,48.2,29.96,WSW,247,4.0,8.0,97,0.00,,,0.33,Weather View 32 v70,2013-01-16 21:21:00,
2013-01-16 16:26:00,49.0,48.2,29.97,West,270,6.0,8.0,97,0.00,,,0.33,Weather View 32 v70,2013-01-16 21:26:00,
2013-01-16 16:31:00,49.0,48.2,29.97,West,270,5.0,8.0,97,0.00,,,0.33,Weather View 32 v70,2013-01-16 21:31:00,
2013-01-16 16:36:00,49.0,48.2,29.97,West,270,4.0,8.0,97,0.00,,,0.33,Weather View 32 v70,2013-01-16 21:36:00,
2013-01-16 16:41:00,49.0,48.2,29.97,West,270,2.0,8.0,97,0.00,,,0.33,Weather View 32 v70,2013-01-16 21:41:00,
2013-01-16 16:46:00,49.0,48.2,29.97,West,270,2.0,8.0,97,0.00,,,0.33,Weather View 32 v70,2013-01-16 21:46:00,
2013-01-16 16:51:00,49.0,48.2,29.97,West,270,3.0,8.0,97,0.00,,,0.33,Weather View 32 v70,2013-01-16 21:51:00,
2013-01-16 16:56:00,49.0,48.2,29.97,West,270,1.0,8.0,97,0.00,,,0.33,Weather View 32 v70,2013-01-16 21:56:00,
2013-01-16 17:01:00,49.0,48.2,29.97,West,270,3.0,7.0,97,0.00,,,0.33,Weather View 32 v70,2013-01-16 22:01:00,
2013-01-16 17:06:00,49.0,48.2,29.97,West,270,4.0,7.0,97,0.00,,,0.33,Weather View 32 v70,2013-01-16 22:06:00,
2013-01-16 17:11:00,49.0,48.2,29.97,WSW,247,4.0,7.0,97,0.00,,,0.33,Weather View 32 v70,2013-01-16 22:11:00,
2013-01-16 17:16:00,49.0,48.2,29.96,WSW,247,1.0,7.0,97,0.00,,,0.33,Weather View 32 v70,2013-01-16 22:16:00,
2013-01-16 17:21:00,49.0,48.2,29.96,WSW,247,3.0,7.0,97,0.00,,,0.33,Weather View 32 v70,2013-01-16 22:21:00,
2013-01-16 17:26:00,49.0,48.2,29.97,WSW,247,2.0,7.0,97,0.00,,,0.33,Weather View 32 v70,2013-01-16 22:26:00,
2013-01-16 17:31:00,49.0,48.2,29.97,WSW,247,4.0,7.0,97,0.00,,,0.33,Weather View 32 v70,2013-01-16 22:31:00,
2013-01-16 17:36:00,49.0,48.2,29.97,WSW,247,4.0,7.0,97,0.00,,,0.33,Weather View 32 v70,2013-01-16 22:36:00,
2013-01-16 17:41:00,49.0,48.2,29.97,West,270,3.0,7.0,97,0.00,,,0.33,Weather View 32 v70,2013-01-16 22:41:00,
2013-01-16 17:46:00,49.0,48.2,29.97,West,270,2.0,7.0,97,0.00,,,0.33,Weather View 32 v70,2013-01-16 22:46:00,
2013-01-16 17:51:00,49.0,48.2,29.97,West,270,1.0,7.0,97,0.00,,,0.33,Weather View 32 v70,2013-01-16 22:51:00,
2013-01-16 17:56:00,49.0,48.2,29.96,West,270,2.0,7.0,97,0.00,,,0.33,Weather View 32 v70,2013-01-16 22:56:00,
2013-01-16 18:01:00,48.0,47.2,29.96,West,270,2.0,7.0,97,0.00,,,0.33,Weather View 32 v70,2013-01-16 23:01:00,
2013-01-16 18:06:00,48.0,47.2,29.96,West,270,2.0,7.0,97,0.00,,,0.33,Weather View 32 v70,2013-01-16 23:06:00,
2013-01-16 18:11:00,48.0,47.2,29.96,West,270,4.0,7.0,97,0.00,,,0.33,Weather View 32 v70,2013-01-16 23:11:00,
2013-01-16 18:16:00,48.0,47.2,29.97,West,270,6.0,7.0,97,0.00,,,0.33,Weather View 32 v70,2013-01-16 23:16:00,
2013-01-16 18:22:00,48.0,47.2,29.97,West,270,5.0,7.0,97,0.00,,,0.33,Weather View 32 v70,2013-01-16 23:22:00,
2013-01-16 18:27:00,48.0,47.2,29.98,WNW,292,3.0,7.0,97,0.00,,,0.33,Weather View 32 v70,2013-01-16 23:27:00,
2013-01-16 18:32:00,48.0,47.2,29.98,West,270,5.0,7.0,97,0.00,,,0.33,Weather View 32 v70,2013-01-16 23:32:00,
2013-01-16 18:37:00,48.0,47.2,29.97,West,270,3.0,7.0,97,0.00,,,0.33,Weather View 32 v70,2013-01-16 23:37:00,
2013-01-16 18:42:00,48.0,47.2,29.97,West,270,5.0,7.0,97,0.00,,,0.33,Weather View 32 v70,2013-01-16 23:42:00,
2013-01-16 18:47:00,48.0,47.2,29.98,WSW,247,2.0,8.0,97,0.00,,,0.33,Weather View 32 v70,2013-01-16 23:47:00,
2013-01-16 18:52:00,48.0,47.2,29.98,WSW,247,0.0,8.0,97,0.00,,,0.33,Weather View 32 v70,2013-01-16 23:52:00,
2013-01-16 18:57:00,48.0,47.2,29.97,WSW,247,1.0,8.0,97,0.00,,,0.33,Weather View 32 v70,2013-01-16 23:57:00,
2013-01-16 19:02:00,48.0,47.2,29.97,WSW,247,3.0,8.0,97,0.00,,,0.33,Weather View 32 v70,2013-01-17 00:02:00,
2013-01-16 19:07:00,48.0,47.2,29.98,WSW,247,5.0,8.0,97,0.00,,,0.33,Weather View 32 v70,2013-01-17 00:07:00,
2013-01-16 19:12:00,48.0,47.2,29.98,WSW,247,2.0,8.0,97,0.00,,,0.33,Weather View 32 v70,2013-01-17 00:12:00,
2013-01-16 19:17:00,48.0,47.2,29.97,WSW,247,3.0,8.0,97,0.00,,,0.33,Weather View 32 v70,2013-01-17 00:17:00,
2013-01-16 19:22:00,48.0,47.2,29.97,WSW,247,0.0,8.0,97,0.00,,,0.33,Weather View 32 v70,2013-01-17 00:22:00,
2013-01-16 19:27:00,48.0,47.2,29.96,WSW,247,0.0,8.0,97,0.00,,,0.33,Weather View 32 v70,2013-01-17 00:27:00,
2013-01-16 19:32:00,48.0,47.2,29.96,WSW,247,3.0,8.0,97,0.00,,,0.33,Weather View 32 v70,2013-01-17 00:32:00,
2013-01-16 19:37:00,48.0,47.2,29.97,WSW,247,3.0,8.0,97,0.00,,,0.33,Weather View 32 v70,2013-01-17 00:37:00,
2013-01-16 19:42:00,48.0,47.2,29.97,WSW,247,1.0,8.0,97,0.00,,,0.33,Weather View 32 v70,2013-01-17 00:42:00,
2013-01-16 19:47:00,48.0,47.2,29.97,WSW,247,4.0,6.0,97,0.00,,,0.33,Weather View 32 v70,2013-01-17 00:47:00,
2013-01-16 19:52:00,48.0,47.2,29.97,WSW,247,0.0,6.0,97,0.00,,,0.33,Weather View 32 v70,2013-01-17 00:52:00,
2013-01-16 19:57:00,48.0,47.2,29.97,WSW,247,1.0,6.0,97,0.00,,,0.33,Weather View 32 v70,2013-01-17 00:57:00,
2013-01-16 20:02:00,48.0,47.2,29.97,WSW,247,0.0,6.0,97,0.00,,,0.33,Weather View 32 v70,2013-01-17 01:02:00,
2013-01-16 20:07:00,48.0,47.2,29.97,WSW,247,1.0,6.0,97,0.00,,,0.33,Weather View 32 v70,2013-01-17 01:07:00,
2013-01-16 20:12:00,48.0,47.2,29.97,WSW,247,0.0,5.0,97,0.00,,,0.33,Weather View 32 v70,2013-01-17 01:12:00,
2013-01-16 20:17:00,48.0,47.2,29.97,WSW,247,0.0,5.0,97,0.00,,,0.33,Weather View 32 v70,2013-01-17 01:17:00,
2013-01-16 20:22:00,48.0,47.2,29.97,WSW,247,2.0,5.0,97,0.00,,,0.33,Weather View 32 v70,2013-01-17 01:22:00,
2013-01-16 20:27:00,48.0,47.2,29.97,WSW,247,2.0,5.0,97,0.00,,,0.33,Weather View 32 v70,2013-01-17 01:27:00,
2013-01-16 20:32:00,47.0,46.2,29.97,WSW,247,0.0,5.0,97,-0.11,,,0.33,Weather View 32 v70,2013-01-17 01:32:00,
2013-01-16 20:37:00,48.0,47.2,29.97,WSW,247,3.0,5.0,97,0.00,,,0.33,Weather View 32 v70,2013-01-17 01:37:00,
2013-01-16 20:42:00,47.0,46.2,29.97,WSW,247,3.0,5.0,97,0.00,,,0.33,Weather View 32 v70,2013-01-17 01:42:00,
2013-01-16 20:47:00,48.0,47.2,29.97,WSW,247,1.0,5.0,97,0.00,,,0.33,Weather View 32 v70,2013-01-17 01:47:00,
2013-01-16 20:53:00,48.0,47.2,29.97,WSW,247,0.0,5.0,97,0.00,,,0.33,Weather View 32 v70,2013-01-17 01:53:00,
2013-01-16 20:58:00,48.0,47.2,29.97,WSW,247,0.0,5.0,97,0.00,,,0.33,Weather View 32 v70,2013-01-17 01:58:00,
2013-01-16 21:03:00,48.0,47.2,29.97,WSW,247,2.0,5.0,97,0.00,,,0.33,Weather View 32 v70,2013-01-17 02:03:00,
2013-01-16 21:08:00,48.0,47.2,29.97,WSW,247,3.0,5.0,97,0.00,,,0.33,Weather View 32 v70,2013-01-17 02:08:00,
2013-01-16 21:13:00,48.0,47.2,29.97,WSW,247,1.0,5.0,97,0.00,,,0.33,Weather View 32 v70,2013-01-17 02:13:00,
2013-01-16 21:18:00,48.0,47.2,29.98,WSW,247,2.0,5.0,97,0.00,,,0.33,Weather View 32 v70,2013-01-17 02:18:00,
2013-01-16 21:23:00,48.0,47.2,29.98,WSW,247,0.0,5.0,97,0.00,,,0.33,Weather View 32 v70,2013-01-17 02:23:00,
2013-01-16 21:28:00,48.0,47.2,29.97,WSW,247,0.0,5.0,97,0.00,,,0.33,Weather View 32 v70,2013-01-17 02:28:00,
2013-01-16 21:33:00,48.0,47.2,29.97,WSW,247,0.0,5.0,97,0.00,,,0.33,Weather View 32 v70,2013-01-17 02:33:00,
2013-01-16 21:38:00,48.0,47.2,29.96,WSW,247,0.0,5.0,97,0.00,,,0.33,Weather View 32 v70,2013-01-17 02:38:00,
2013-01-16 21:43:00,48.0,47.2,29.96,WSW,247,3.0,5.0,97,0.00,,,0.33,Weather View 32 v70,2013-01-17 02:43:00,
2013-01-16 21:48:00,48.0,47.2,29.96,WSW,247,0.0,5.0,97,0.00,,,0.33,Weather View 32 v70,2013-01-17 02:48:00,
2013-01-16 21:53:00,48.0,47.2,29.96,WSW,247,3.0,5.0,97,0.00,,,0.33,Weather View 32 v70,2013-01-17 02:53:00,
2013-01-16 21:58:00,48.0,47.2,29.96,WSW,247,0.0,5.0,97,0.00,,,0.33,Weather View 32 v70,2013-01-17 02:58:00,
2013-01-16 22:03:00,48.0,47.2,29.96,WSW,247,0.0,5.0,97,0.00,,,0.33,Weather View 32 v70,2013-01-17 03:03:00,
2013-01-16 22:08:00,48.0,47.2,29.95,WSW,247,0.0,5.0,97,0.01,,,0.34,Weather View 32 v70,2013-01-17 03:08:00,
2013-01-16 22:13:00,48.0,47.2,29.95,WSW,247,0.0,5.0,97,0.01,,,0.34,Weather View 32 v70,2013-01-17 03:13:00,
2013-01-16 22:18:00,48.0,47.2,29.94,WSW,247,0.0,5.0,97,0.01,,,0.34,Weather View 32 v70,2013-01-17 03:18:00,
2013-01-16 22:23:00,48.0,47.2,29.94,WSW,247,0.0,5.0,97,0.01,,,0.34,Weather View 32 v70,2013-01-17 03:23:00,
2013-01-16 22:28:00,48.0,47.2,29.95,WSW,247,0.0,5.0,97,0.01,,,0.34,Weather View 32 v70,2013-01-17 03:28:00,
2013-01-16 22:33:00,48.0,47.2,29.95,WSW,247,0.0,5.0,97,0.01,,,0.34,Weather View 32 v70,2013-01-17 03:33:00,
2013-01-16 22:38:00,48.0,47.2,29.95,WSW,247,1.0,5.0,97,0.01,,,0.34,Weather View 32 v70,2013-01-17 03:38:00,
2013-01-16 22:43:00,48.0,47.2,29.95,WSW,247,1.0,5.0,97,0.01,,,0.34,Weather View 32 v70,2013-01-17 03:43:00,
2013-01-16 22:48:00,48.0,47.2,29.95,WSW,247,4.0,4.0,97,0.01,,,0.34,Weather View 32 v70,2013-01-17 03:48:00,
2013-01-16 22:53:00,48.0,47.2,29.95,WSW,247,5.0,5.0,97,0.01,,,0.35,Weather View 32 v70,2013-01-17 03:53:00,
2013-01-16 22:58:00,48.0,47.2,29.95,WSW,247,2.0,5.0,97,0.02,,,0.35,Weather View 32 v70,2013-01-17 03:58:00,
2013-01-16 23:03:00,48.0,47.2,29.95,WSW,247,0.0,5.0,97,0.02,,,0.35,Weather View 32 v70,2013-01-17 04:03:00,
2013-01-16 23:08:00,48.0,47.2,29.95,WSW,247,3.0,5.0,97,0.01,,,0.35,Weather View 32 v70,2013-01-17 04:08:00,
2013-01-16 23:13:00,48.0,47.2,29.95,WSW,247,0.0,5.0,97,0.02,,,0.36,Weather View 32 v70,2013-01-17 04:13:00,
2013-01-16 23:18:00,48.0,47.2,29.95,WSW,247,1.0,5.0,97,0.02,,,0.36,Weather View 32 v70,2013-01-17 04:18:00,
2013-01-16 23:23:00,48.0,47.2,29.95,WSW,247,2.0,5.0,97,0.02,,,0.36,Weather View 32 v70,2013-01-17 04:23:00,
2013-01-16 23:29:00,48.0,47.2,29.95,WSW,247,4.0,5.0,97,0.02,,,0.36,Weather View 32 v70,2013-01-17 04:29:00,
2013-01-16 23:34:00,48.0,47.2,29.95,WSW,247,4.0,6.0,97,0.03,,,0.37,Weather View 32 v70,2013-01-17 04:34:00,
2013-01-16 23:39:00,48.0,47.2,29.95,WSW,247,3.0,6.0,97,0.03,,,0.37,Weather View 32 v70,2013-01-17 04:39:00,
2013-01-16 23:44:00,48.0,47.2,29.95,WSW,247,2.0,6.0,97,0.03,,,0.37,Weather View 32 v70,2013-01-17 04:44:00,
2013-01-16 23:49:00,48.0,47.2,29.95,WSW,247,3.0,6.0,97,0.03,,,0.37,Weather View 32 v70,2013-01-17 04:49:00,
2013-01-16 23:54:00,48.0,47.2,29.95,WSW,247,4.0,6.0,97,0.02,,,0.37,Weather View 32 v70,2013-01-17 04:54:00,
2013-01-16 23:59:00,48.0,47.2,29.96,West,270,6.0,7.0,97,0.02,,,0.37,Weather View 32 v70,2013-01-17 04:59:00,